Weather in Stanki

Russia / Pskov Oblast     57°33′15″N   30°21′05″E
temp.,
°C
wind,
m/s
gust,
m/s
humid.,
%
clouds,
%
prec.,
mm/h
press.,
hPa
HPBL,
m
16 april, fri
fri1600:00+6ne51373100 0.0 1023643
03:00+4ne51282100 0.0 1023540
06:00+4ne5138395 0.0 1022513
09:00+6ne51376100 0.0 1022572
12:00+10ene6966100 0.0 1023827
15:00+13ene695996 0.0 10231123
18:00+13ene596490 0.0 10221093
21:00+10ene51275100 0.0 1023592
17 april, sat
sat1700:00+7ene4127387 0.0 1024489
03:00+6ne4127348 0.0 1024412
06:00+5ne51175100 0.0 1024443
09:00+8ene597399 0.0 1025540
12:00+13ene576474 0.0 1024972
15:00+14ene5762100 0.0 10241334
18:00+14ene4964100 0.0 10241067
21:00+10ne4117165 0.0 1024384
18 april, sun
sun1800:00+8ene412645 0.0 1025453
03:00+6ne411724 0.0 1025355
06:00+4ne412805 0.0 1025367
09:00+8ene59630 0.0 1025552
12:00+12ene58465 0.0 10251308
15:00+14ene57385 0.0 10251804
18:00+13ene47445 0.0 10251829
21:00+8ne311615 0.0 1026302
19 april, mon
mon1900:00+7ene411695 0.0 1027347
03:00+5ene311815 0.0 1027312
06:00+3ene29925 0.0 1027221
09:00+8ene48685 0.0 1027491
12:00+12ene575254 0.0 10261585
15:00+12e4652100 0.0 10251617
18:00+10e486199 0.0 1025802
21:00+7e497393 0.0 1025457
20 april, tue
tue2000:00+7e3975100 0.0 1024627
03:00+5ene4108130 0.0 1022417
06:00+4ene41080100 0.0 1021445
09:00+6e5106594 0.0 1019699
12:00+9e5958100 0.0 10181009
15:00+11e6952100 0.0 10151727
18:00+11ene51053100 0.0 10121529
21:00+8ene61161100 0.0 10091067